THORAD AGENA D DEB, 42517

Orbit data source: Space-Track

THORAD AGENA D DEB, 42517 is space debris in SSO originally from a launch on Wed, 08 Apr 1970 UTC launched from the Air Force Western Test Range (AFWTR). Debris objects in space refer to the collection of defunct objects orbiting the Earth. Examples of debris include non-operational satellites, rocket bodies, and fragments generated from explosions, collisions, or faulty payload assembly.

Loading next visibility...
Identifier
42517, 1970-025RX
Orbit
SSO
Country
Flag of USUS
Related business
Manufacturer
Unknown
Mission
Spacecraft
Bus & Motor
Unknown
Mass
Unknown
Launch date (UTC)
1970-04-08 (56 years ago)
Launch vehicle
Unknown
Launch site
Air Force Western Test Range (AFWTR)
Object type
Payload
Rocket body
Debris
Shape & HBR
Unknown shape, 0.1 m
Radar Cross Section
Small (<0.1 m²)

Expand to show TLE details & history
Last TLE update: 3 days ago

TLE from 3 days ago
0 THORAD AGENA D DEB
1 42517U 70025RX  26129.98644870  .00000489  00000-0  92396-3 0  9992
2 42517 100.2311 183.5571 0091877 209.5477 150.0441 13.42455053611572
Epoch: 2026-05-09T23:40Z
TLE epoch observation values (Epoch: 2026-05-09T23:40:29.167Z)
Latitude
0.00001°
Longitude
-39.36044°
Altitude
1,162.6 km
Speed
7.243 km/s
True Right ascension
12h 14m 13s
True Declination
0° 00' 00"
Sunlit
Object was in full shadow at epoch
Visualization orbit readout
Latitude
Unknown
Longitude
Unknown
Altitude
Unknown
Speed
Unknown
Apparent Right ascension
Unknown
Apparent Declination
Unknown
Sunlit
N/A
Visualization observer readout
Local Sidereal Time
11:44:54
Azimuth
Unknown
Elevation
Unknown
Doppler factor
Unknown
Orbital elements
Apogee altitude
1,166.171 km
Perigee altitude
1,028.803 km
Semi-major axis
7,475.624 km
Eccentricity
0.00919
Inclination
100.2311°
RAAN
183.5571°
Arg. of periapsis
209.5477°
True anomaly
150.56463°
Mean anomaly
150.0441°
Eccentric anomaly
150.30488°
Mean motion
3.35793 °/min
Orbital period
107.21 mins
BSTAR
0.00092396

Documentation

Showing up to 5 results
|